EN

Hourly Weather Laghouat

Today, 28 July, Wednesday

Time Temperature Precipitation Wind Pressure Humidity
00:00 +30°C° 0 mm 3 mps 693 mmHg 14%
01:00 +29°C° 0 mm 3 mps 693 mmHg 14%
02:00 +29°C° 0 mm 3 mps 693 mmHg 14%
03:00 +28°C° 0 mm 2 mps 693 mmHg 15%
04:00 +28°C° 0 mm 2 mps 693 mmHg 15%
05:00 +28°C° 0 mm 2 mps 694 mmHg 16%
06:00 +27°C° 0 mm 2 mps 694 mmHg 17%
07:00 +30°C° 0 mm 3 mps 695 mmHg 16%
08:00 +33°C° 0 mm 3 mps 695 mmHg 15%
09:00 +35°C° 0 mm 4 mps 696 mmHg 13%
10:00 +37°C° 0 mm 4 mps 695 mmHg 12%
11:00 +40°C° 0 mm 5 mps 695 mmHg 10%
12:00 +41°C° 0 mm 5 mps 696 mmHg 9%
13:00 +42°C° 0 mm 5 mps 695 mmHg 9%
14:00 +42°C° 0 mm 5 mps 695 mmHg 8%
15:00 +43°C° 0 mm 4 mps 695 mmHg 8%
16:00 +42°C° 0 mm 4 mps 695 mmHg 8%
17:00 +42°C° 0 mm 4 mps 695 mmHg 8%
18:00 +41°C° 0 mm 4 mps 694 mmHg 9%
19:00 +39°C° 0 mm 5 mps 695 mmHg 11%
20:00 +36°C° 0 mm 5 mps 695 mmHg 13%
21:00 +34°C° 0 mm 5 mps 695 mmHg 15%
22:00 +33°C° 0 mm 4 mps 695 mmHg 18%
23:00 +31°C° 0 mm 3 mps 695 mmHg 20%

Tomorrow, 29 July, Thursday

Time Temperature Precipitation Wind Pressure Humidity
00:00 +30°C° 0 mm 1 mps 695 mmHg 22%
01:00 +29°C° 0 mm 1 mps 695 mmHg 23%
02:00 +29°C° 0 mm 1 mps 694 mmHg 24%
03:00 +28°C° 0 mm 1 mps 694 mmHg 24%
04:00 +28°C° 0 mm 1 mps 695 mmHg 24%
05:00 +29°C° 0 mm 1 mps 695 mmHg 23%
06:00 +29°C° 0 mm 1 mps 695 mmHg 23%
07:00 +31°C° 0 mm 2 mps 696 mmHg 20%
08:00 +34°C° 0 mm 3 mps 696 mmHg 17%
09:00 +36°C° 0 mm 4 mps 697 mmHg 14%
10:00 +38°C° 0 mm 4 mps 697 mmHg 12%
11:00 +41°C° 0 mm 4 mps 697 mmHg 11%
12:00 +42°C° 0 mm 4 mps 697 mmHg 9%
13:00 +43°C° 0 mm 4 mps 696 mmHg 9%
14:00 +44°C° 0 mm 4 mps 696 mmHg 8%
15:00 +44°C° 0 mm 4 mps 695 mmHg 7%
16:00 +44°C° 0 mm 3 mps 695 mmHg 8%
17:00 +43°C° 0 mm 3 mps 695 mmHg 8%
18:00 +43°C° 0 mm 3 mps 695 mmHg 8%
19:00 +40°C° 0 mm 3 mps 695 mmHg 9%
20:00 +39°C° 0 mm 3 mps 695 mmHg 10%
21:00 +37°C° 0 mm 4 mps 695 mmHg 11%
22:00 +36°C° 0 mm 4 mps 695 mmHg 12%
23:00 +35°C° 0 mm 3 mps 695 mmHg 13%

Day after tomorrow, 30 July, Friday

Time Temperature Precipitation Wind Pressure Humidity
00:00 +34°C° 0 mm 3 mps 695 mmHg 14%
01:00 +33°C° 0 mm 3 mps 695 mmHg 15%
02:00 +31°C° 0 mm 3 mps 695 mmHg 16%
03:00 +30°C° 0 mm 2 mps 695 mmHg 17%
04:00 +30°C° 0 mm 2 mps 695 mmHg 17%
05:00 +30°C° 0 mm 2 mps 695 mmHg 18%
06:00 +30°C° 0 mm 2 mps 695 mmHg 18%
07:00 +32°C° 0 mm 2 mps 696 mmHg 16%
08:00 +36°C° 0 mm 3 mps 696 mmHg 14%
09:00 +38°C° 0 mm 3 mps 697 mmHg 12%
10:00 +40°C° 0 mm 3 mps 696 mmHg 11%
11:00 +42°C° 0 mm 3 mps 696 mmHg 10%
12:00 +44°C° 0 mm 3 mps 696 mmHg 9%
13:00 +44°C° 0 mm 4 mps 696 mmHg 9%
14:00 +45°C° 0 mm 5 mps 695 mmHg 9%
15:00 +45°C° 0 mm 5 mps 695 mmHg 9%
16:00 +43°C° 0 mm 7 mps 695 mmHg 11%
17:00 +41°C° 0 mm 8 mps 695 mmHg 13%
18:00 +39°C° 0 mm 9 mps 695 mmHg 15%
19:00 +38°C° 0 mm 7 mps 695 mmHg 15%
20:00 +37°C° 0 mm 5 mps 695 mmHg 14%
21:00 +36°C° 0 mm 3 mps 696 mmHg 14%
22:00 +35°C° 0 mm 3 mps 696 mmHg 17%
23:00 +34°C° 0 mm 3 mps 696 mmHg 20%

31 July, Saturday

Time Temperature Precipitation Wind Pressure Humidity
00:00 +33°C° 0 mm 3 mps 696 mmHg 22%
01:00 +32°C° 0 mm 2 mps 695 mmHg 23%
02:00 +31°C° 0 mm 2 mps 695 mmHg 24%
03:00 +30°C° 0 mm 1 mps 694 mmHg 25%
04:00 +31°C° 0 mm 1 mps 695 mmHg 25%
05:00 +31°C° 0 mm 1 mps 695 mmHg 24%
06:00 +31°C° 0 mm 1 mps 695 mmHg 23%
07:00 +35°C° 0 mm 2 mps 695 mmHg 20%
08:00 +37°C° 0 mm 3 mps 695 mmHg 17%
09:00 +40°C° 0 mm 4 mps 696 mmHg 14%
10:00 +41°C° 0 mm 4 mps 696 mmHg 12%
11:00 +43°C° 0 mm 5 mps 695 mmHg 10%
12:00 +45°C° 0 mm 6 mps 695 mmHg 8%
13:00 +45°C° 0 mm 6 mps 695 mmHg 8%
14:00 +46°C° 0 mm 6 mps 694 mmHg 7%
15:00 +46°C° 0 mm 6 mps 694 mmHg 7%
16:00 +45°C° 0 mm 6 mps 693 mmHg 7%
17:00 +45°C° 0 mm 6 mps 693 mmHg 7%
18:00 +44°C° 0 mm 6 mps 693 mmHg 7%
19:00 +41°C° 0 mm 5 mps 693 mmHg 9%
20:00 +38°C° 0 mm 4 mps 694 mmHg 11%
21:00 +37°C° 0 mm 3 mps 694 mmHg 12%
22:00 +35°C° 0 mm 2 mps 694 mmHg 14%
23:00 +34°C° 0 mm 2 mps 694 mmHg 17%

1 August, Sunday

Time Temperature Precipitation Wind Pressure Humidity
00:00 +32°C° 0 mm 1 mps 694 mmHg 19%
01:00 +31°C° 0 mm 1 mps 693 mmHg 20%
02:00 +30°C° 0 mm 1 mps 693 mmHg 22%
03:00 +29°C° 0 mm 1 mps 693 mmHg 23%
04:00 +30°C° 0 mm 1 mps 693 mmHg 22%
05:00 +30°C° 0 mm 1 mps 693 mmHg 22%
06:00 +31°C° 0 mm 1 mps 694 mmHg 21%
07:00 +33°C° 0 mm 1 mps 694 mmHg 18%
08:00 +36°C° 0 mm 2 mps 694 mmHg 15%
09:00 +38°C° 0 mm 2 mps 695 mmHg 12%
10:00 +40°C° 0 mm 3 mps 695 mmHg 10%
11:00 +43°C° 0 mm 5 mps 694 mmHg 8%
12:00 +45°C° 0 mm 6 mps 694 mmHg 6%
13:00 +45°C° 0 mm 6 mps 694 mmHg 6%
14:00 +45°C° 0 mm 6 mps 694 mmHg 6%
15:00 +46°C° 0 mm 6 mps 693 mmHg 6%
16:00 +45°C° 0 mm 6 mps 693 mmHg 6%
17:00 +44°C° 0 mm 6 mps 693 mmHg 6%
18:00 +42°C° 0 mm 6 mps 693 mmHg 6%
19:00 +40°C° 0 mm 5 mps 693 mmHg 8%
20:00 +37°C° 0 mm 5 mps 693 mmHg 9%
21:00 +35°C° 0 mm 4 mps 693 mmHg 10%
22:00 +34°C° 0 mm 3 mps 693 mmHg 11%
23:00 +34°C° 0 mm 3 mps 693 mmHg 12%

2 August, Monday

Time Temperature Precipitation Wind Pressure Humidity
00:00 +32°C° 0 mm 2 mps 693 mmHg 14%
01:00 +31°C° 0 mm 2 mps 693 mmHg 14%
02:00 +31°C° 0 mm 2 mps 693 mmHg 15%
03:00 +30°C° 0 mm 3 mps 693 mmHg 16%
04:00 +30°C° 0 mm 2 mps 693 mmHg 15%
05:00 +30°C° 0 mm 2 mps 693 mmHg 15%
06:00 +30°C° 0 mm 2 mps 693 mmHg 14%
07:00 +34°C° 0 mm 3 mps 693 mmHg 12%
08:00 +36°C° 0 mm 4 mps 694 mmHg 10%
09:00 +40°C° 0 mm 5 mps 694 mmHg 8%
10:00 +41°C° 0 mm 6 mps 694 mmHg 7%
11:00 +43°C° 0 mm 7 mps 694 mmHg 6%
12:00 +44°C° 0 mm 7 mps 694 mmHg 5%
13:00 +44°C° 0 mm 7 mps 694 mmHg 5%
14:00 +45°C° 0 mm 6 mps 693 mmHg 5%
15:00 +45°C° 0 mm 6 mps 693 mmHg 5%
16:00 +44°C° 0 mm 6 mps 693 mmHg 5%
17:00 +42°C° 0 mm 5 mps 693 mmHg 6%
18:00 +42°C° 0 mm 5 mps 693 mmHg 6%
19:00 +40°C° 0 mm 5 mps 693 mmHg 7%
20:00 +37°C° 0 mm 4 mps 693 mmHg 8%
21:00 +36°C° 0 mm 4 mps 693 mmHg 8%
22:00 +35°C° 0 mm 4 mps 693 mmHg 9%
23:00 +34°C° 0 mm 3 mps 693 mmHg 9%
Show more